Location: Cazarilh
(42.9578°N, 0.5819°E)
Time: 23:09:46
(UTC+00:00)

Meteor 1-14 Rocket - Pass Details

Date: 11 December 2019
Orbit: 833 x 920 km, 81.3° (Epoch: 20 January)

Event Time Altitude Azimuth Distance (km) Brightness Sun altitude
Rises 05:39:17 0° 197° (SSW) 3,514 7.4 -17.4°
Reaches altitude 10° 05:41:45 10° 201° (SSW) 2,586 6.7 -17.0°
Maximum altitude 05:47:37 64° 282° (WNW) 1,012 4.3 -16.0°
Drops below altitude 10° 05:53:35 10° 4° (N) 2,625 6.6 -14.9°
Sets 05:56:07 0° 8° (N) 3,570 7.4 -14.5°
